Talkeetna, AK

10:55 AM AKDT on April 29, 2017 (GMT -0800)
Talkeetna

Weather History for PATK - July, 2013

Change the Weather History Date:

Monday, July 1, 2013

  Actual Average Record
Temperature  
Mean Temperature 52 °F -  
Max Temperature 55 °F 68 °F 84 °F (1989)
Min Temperature 50 °F 47 °F 32 °F (1997)
Degree Days  
Heating Degree Days 12    
Growing Degree Days 2 (Base 50)    
Moisture  
Dew Point 51 °F    
Average Humidity 92    
Maximum Humidity 100    
Minimum Humidity 75    
Precipitation  
Precipitation 0.08 in - - ()
Sea Level Pressure  
Sea Level Pressure 29.75 in    
Wind  
Wind Speed 1 mph (NNE)    
Max Wind Speed 5 mph    
Max Gust Speed -    
Visibility 8 miles    
Events      
Averages and records for this station are not official NWS values.
T = Trace of Precipitation, MM = Missing Value Source: NWS Daily Summary

Daily Weather History Graph

Daily Weather History Graph

Search for Another Location

Airport or City:

Trip Planner

Search our weather history database for the weather conditions in past years. The results will help you decide how hot, cold, wet, or windy it might be!

Date:

Astronomy

Jul. 01, 2013 Rise Set
Actual Time 4:13 AM AKDT 11:54 PM AKDT
Civil Twilight 2:36 AM AKDT 1:31 AM AKDT
Nautical Twilight Sun does not set Sun does not set
Astronomical Twilight Sun does not set Sun does not set
Moon 1:20 AM AKDT (7/1) 5:01 PM AKDT (7/1)
Length of Visible Light 22h 55m
Length of Day
19h 41m
Waning Crescent, 34% of the Moon is Illuminated
Jul 1
Waning Crescent
Jul 7
New
Jul 15
First Quarter
Jul 22
Full
Jul 29
Last Quarter

Hourly Weather History & Observations

Time (AKDT) Temp. Dew Point Humidity Pressure Visibility Wind Dir Wind Speed Gust Speed Precip Events Conditions
12:07 AM 53.6 °F 53.6 °F 100% 29.84 in 10.0 mi Calm Calm - N/A   Overcast
12:25 AM 53.6 °F 53.6 °F 100% 29.84 in 10.0 mi Calm Calm - N/A   Overcast
12:53 AM 54.0 °F 53.1 °F 97% 29.85 in 5.0 mi Calm Calm - 0.01 in   Overcast
1:04 AM 53.6 °F 53.6 °F 100% 29.84 in 4.0 mi Calm Calm - 0.01 in   Overcast
1:53 AM 54.0 °F 53.1 °F 97% 29.85 in 6.0 mi Calm Calm - 0.06 in   Overcast
2:23 AM 53.6 °F 53.6 °F 100% 29.83 in 6.0 mi Calm Calm - 0.03 in   Overcast
2:34 AM 53.6 °F 53.6 °F 100% 29.82 in 9.0 mi Calm Calm - 0.03 in   Overcast
2:53 AM 53.1 °F 53.1 °F 100% 29.83 in 10.0 mi Calm Calm - 0.04 in   Overcast
3:53 AM 53.1 °F 52.0 °F 96% 29.82 in 5.0 mi Calm Calm - 0.03 in   Overcast
4:04 AM 53.6 °F 51.8 °F 94% 29.81 in 6.0 mi Calm Calm - 0.02 in   Overcast
4:17 AM 53.6 °F 51.8 °F 94% 29.80 in 5.0 mi Calm Calm - 0.05 in   Overcast
4:34 AM 53.6 °F 51.8 °F 94% 29.80 in 6.0 mi Calm Calm - 0.06 in   Overcast
4:45 AM 51.8 °F 50.0 °F 94% 29.80 in 3.0 mi West 4.6 mph - 0.09 in   Overcast
4:53 AM 51.1 °F 50.0 °F 96% 29.81 in 5.0 mi West 4.6 mph - 0.10 in   Overcast
5:07 AM 51.8 °F 50.0 °F 94% 29.79 in 6.0 mi Calm Calm - 0.02 in   Overcast
5:24 AM 51.8 °F 50.0 °F 94% 29.79 in 6.0 mi Calm Calm - 0.04 in   Overcast
5:46 AM 50.0 °F 50.0 °F 100% 29.79 in 6.0 mi Calm Calm - 0.08 in   Overcast
5:53 AM 51.1 °F 48.9 °F 92% 29.79 in 5.0 mi Calm Calm - 0.09 in   Overcast
6:10 AM 51.8 °F 50.0 °F 94% 29.78 in 5.0 mi Calm Calm - 0.02 in   Overcast
6:16 AM 51.8 °F 50.0 °F 94% 29.78 in 6.0 mi Calm Calm - 0.03 in   Overcast
6:53 AM 51.1 °F 50.0 °F 96% 29.78 in 7.0 mi Calm Calm - 0.06 in   Overcast
7:31 AM 51.8 °F 50.0 °F 94% 29.76 in 8.0 mi Calm Calm - 0.02 in   Overcast
7:53 AM 51.1 °F 50.0 °F 96% 29.77 in 9.0 mi Calm Calm - 0.03 in   Overcast
8:53 AM 51.1 °F 50.0 °F 96% 29.75 in 8.0 mi Calm Calm - 0.02 in   Overcast
9:25 AM 51.8 °F 51.8 °F 100% 29.73 in 7.0 mi Calm Calm - 0.01 in   Overcast
9:53 AM 52.0 °F 51.1 °F 97% 29.74 in 6.0 mi Variable 3.5 mph - 0.04 in   Overcast
10:53 AM 53.1 °F 51.1 °F 93% 29.73 in 10.0 mi NNE 3.5 mph - 0.04 in   Overcast
11:53 AM 54.0 °F 50.0 °F 86% 29.73 in 10.0 mi Calm Calm - N/A   Overcast
12:00 PM 53.6 °F 48.2 °F 82% 29.71 in 10.0 mi North 3.5 mph - N/A   Overcast
12:53 PM 55.0 °F 50.0 °F 83% 29.71 in 10.0 mi Calm Calm - N/A   Overcast
1:53 PM 54.0 °F 48.9 °F 83% 29.71 in 10.0 mi Calm Calm - 0.02 in   Overcast
2:53 PM 55.0 °F 51.1 °F 86% 29.71 in 10.0 mi Calm Calm - 0.01 in   Overcast
3:53 PM 54.0 °F 50.0 °F 86% 29.70 in 10.0 mi Calm Calm - 0.01 in   Overcast
4:53 PM 55.0 °F 50.0 °F 83% 29.69 in 10.0 mi NNW 3.5 mph - 0.01 in   Overcast
5:53 PM 55.0 °F 50.0 °F 83% 29.68 in 10.0 mi NNE 4.6 mph - N/A   Overcast
6:53 PM 55.9 °F 48.0 °F 75% 29.66 in 10.0 mi NNE 4.6 mph - N/A   Overcast
7:53 PM 55.9 °F 50.0 °F 80% 29.65 in 10.0 mi ENE 4.6 mph - N/A   Overcast
8:53 PM 55.0 °F 50.0 °F 83% 29.65 in 10.0 mi ENE 3.5 mph - N/A   Overcast
9:53 PM 55.0 °F 51.1 °F 86% 29.64 in 10.0 mi NNE 3.5 mph - N/A   Overcast
10:53 PM 54.0 °F 52.0 °F 93% 29.63 in 10.0 mi NNE 3.5 mph - N/A   Overcast
11:53 PM 53.1 °F 50.0 °F 89% 29.62 in 10.0 mi NE 4.6 mph - N/A   Overcast